Time,TemperatureF,DewpointF,PressureIn,WindDirection,WindDirectionDegrees,WindSpeedMPH,WindSpeedGustMPH,Humidity,HourlyPrecipIn,Conditions,Clouds,dailyrainin,SoftwareType,DateUTC
2013-11-23 00:02:00,29.3,23.7,30.05,WNW,293,1.8,2.7,79,0.00,,,0.00,WUHU216HW,2013-11-23 06:02:00,
2013-11-23 00:07:00,29.3,23.7,30.05,WNW,293,2.0,2.9,79,0.00,,,0.00,WUHU216HW,2013-11-23 06:07:00,
2013-11-23 00:12:00,29.2,23.5,30.05,WNW,293,1.3,2.9,79,0.00,,,0.00,WUHU216HW,2013-11-23 06:12:00,
2013-11-23 00:17:00,29.2,23.5,30.05,WNW,293,1.8,2.5,79,0.00,,,0.00,WUHU216HW,2013-11-23 06:17:00,
2013-11-23 00:22:00,29.0,23.3,30.04,WNW,293,2.9,3.4,79,0.00,,,0.00,WUHU216HW,2013-11-23 06:22:00,
2013-11-23 00:27:00,28.8,23.1,30.05,WNW,293,3.4,4.3,79,0.00,,,0.00,WUHU216HW,2013-11-23 06:27:00,
2013-11-23 00:32:00,28.4,22.8,30.05,WNW,293,0.7,4.3,79,0.00,,,0.00,WUHU216HW,2013-11-23 06:32:00,
2013-11-23 00:37:00,28.4,22.8,30.05,WNW,293,2.0,3.8,79,0.00,,,0.00,WUHU216HW,2013-11-23 06:37:00,
2013-11-23 00:42:00,28.4,23.0,30.04,WNW,293,2.2,3.6,80,0.00,,,0.00,WUHU216HW,2013-11-23 06:42:00,
2013-11-23 00:47:00,28.3,22.9,30.04,WNW,293,0.4,4.7,80,0.00,,,0.00,WUHU216HW,2013-11-23 06:47:00,
2013-11-23 00:52:00,28.1,22.7,30.04,WNW,293,2.5,4.7,80,0.00,,,0.00,WUHU216HW,2013-11-23 06:52:00,
2013-11-23 00:57:00,28.1,22.7,30.04,WNW,293,1.8,4.7,80,0.00,,,0.00,WUHU216HW,2013-11-23 06:57:00,
2013-11-23 01:02:00,27.9,22.8,30.04,WNW,293,3.6,5.8,81,0.00,,,0.00,WUHU216HW,2013-11-23 07:02:00,
2013-11-23 01:07:00,27.5,22.4,30.05,WNW,293,3.4,5.8,81,0.00,,,0.00,WUHU216HW,2013-11-23 07:07:00,
2013-11-23 01:12:00,27.5,22.4,30.05,WNW,293,2.5,5.8,81,0.00,,,0.00,WUHU216HW,2013-11-23 07:12:00,
2013-11-23 01:17:00,27.5,22.4,30.05,WNW,293,4.3,4.3,81,0.00,,,0.00,WUHU216HW,2013-11-23 07:17:00,
2013-11-23 01:22:00,27.5,22.4,30.05,WNW,293,1.3,4.9,81,0.00,,,0.00,WUHU216HW,2013-11-23 07:22:00,
2013-11-23 01:27:00,27.5,22.4,30.05,WNW,293,2.2,4.9,81,0.00,,,0.00,WUHU216HW,2013-11-23 07:27:00,
2013-11-23 01:32:00,27.5,22.4,30.05,WNW,293,2.5,4.0,81,0.00,,,0.00,WUHU216HW,2013-11-23 07:32:00,
2013-11-23 01:37:00,27.5,22.4,30.05,WNW,293,2.0,4.0,81,0.00,,,0.00,WUHU216HW,2013-11-23 07:37:00,
2013-11-23 01:42:00,27.4,22.2,30.04,WNW,293,1.8,4.9,81,0.00,,,0.00,WUHU216HW,2013-11-23 07:42:00,
2013-11-23 01:47:00,27.2,22.1,30.05,WNW,293,1.8,4.9,81,0.00,,,0.00,WUHU216HW,2013-11-23 07:47:00,
2013-11-23 01:52:00,27.0,21.9,30.05,WNW,293,3.4,3.4,81,0.00,,,0.00,WUHU216HW,2013-11-23 07:52:00,
2013-11-23 01:57:00,27.0,22.1,30.05,WNW,293,1.8,4.5,82,0.00,,,0.00,WUHU216HW,2013-11-23 07:57:00,
2013-11-23 02:02:00,26.8,22.0,30.05,WNW,293,0.9,4.5,82,0.00,,,0.00,WUHU216HW,2013-11-23 08:02:00,
2013-11-23 02:07:00,26.6,21.8,30.05,WNW,293,1.3,2.5,82,0.00,,,0.00,WUHU216HW,2013-11-23 08:07:00,
2013-11-23 02:12:00,26.6,21.8,30.05,WNW,293,1.3,3.4,82,0.00,,,0.00,WUHU216HW,2013-11-23 08:12:00,
2013-11-23 02:17:00,26.6,21.5,30.05,WNW,293,1.1,3.4,81,0.00,,,0.00,WUHU216HW,2013-11-23 08:17:00,
2013-11-23 02:22:00,26.8,21.2,30.05,WNW,293,4.0,4.0,79,0.00,,,0.00,WUHU216HW,2013-11-23 08:22:00,
2013-11-23 02:27:00,26.6,20.6,30.05,WNW,293,1.3,4.0,78,0.00,,,0.00,WUHU216HW,2013-11-23 08:27:00,
2013-11-23 02:32:00,26.8,20.8,30.05,WNW,293,1.3,4.0,78,0.00,,,0.00,WUHU216HW,2013-11-23 08:32:00,
2013-11-23 02:37:00,26.6,20.6,30.05,WNW,293,2.2,4.0,78,0.00,,,0.00,WUHU216HW,2013-11-23 08:37:00,
2013-11-23 02:42:00,26.6,20.4,30.05,WNW,293,2.0,3.8,77,0.00,,,0.00,WUHU216HW,2013-11-23 08:42:00,
2013-11-23 02:47:00,26.6,20.0,30.05,WNW,293,2.5,3.8,76,0.00,,,0.00,WUHU216HW,2013-11-23 08:47:00,
2013-11-23 02:52:00,26.6,19.7,30.05,WNW,293,2.7,4.7,75,0.00,,,0.00,WUHU216HW,2013-11-23 08:52:00,
2013-11-23 02:57:00,26.6,19.7,30.05,WNW,293,2.2,4.7,75,0.00,,,0.00,WUHU216HW,2013-11-23 08:57:00,
2013-11-23 03:02:00,26.6,19.5,30.05,WNW,293,2.0,3.6,74,0.00,,,0.00,WUHU216HW,2013-11-23 09:02:00,
2013-11-23 03:07:00,26.6,19.5,30.04,WNW,293,1.8,3.6,74,0.00,,,0.00,WUHU216HW,2013-11-23 09:07:00,
2013-11-23 03:12:00,26.5,18.6,30.04,WNW,293,4.3,4.3,72,0.00,,,0.00,WUHU216HW,2013-11-23 09:12:00,
2013-11-23 03:17:00,26.3,18.5,30.03,WNW,293,2.5,6.9,72,0.00,,,0.00,WUHU216HW,2013-11-23 09:17:00,
2013-11-23 03:22:00,26.3,18.5,30.03,WNW,293,4.0,6.9,72,0.00,,,0.00,WUHU216HW,2013-11-23 09:22:00,
2013-11-23 03:27:00,26.3,18.5,30.03,WNW,293,4.0,5.6,72,0.00,,,0.00,WUHU216HW,2013-11-23 09:27:00,
2013-11-23 03:32:00,26.1,18.3,30.03,WNW,293,4.9,5.6,72,0.00,,,0.00,WUHU216HW,2013-11-23 09:32:00,
2013-11-23 03:37:00,26.1,18.3,30.03,WNW,293,2.5,5.4,72,0.00,,,0.00,WUHU216HW,2013-11-23 09:37:00,
2013-11-23 03:42:00,25.9,18.1,30.03,WNW,293,4.5,5.4,72,0.00,,,0.00,WUHU216HW,2013-11-23 09:42:00,
2013-11-23 03:47:00,25.7,17.9,30.03,WNW,293,2.9,4.7,72,0.00,,,0.00,WUHU216HW,2013-11-23 09:47:00,
2013-11-23 03:52:00,25.6,17.7,30.03,WNW,293,2.9,4.7,72,0.00,,,0.00,WUHU216HW,2013-11-23 09:52:00,
2013-11-23 03:57:00,25.6,17.7,30.03,WNW,293,4.3,4.7,72,0.00,,,0.00,WUHU216HW,2013-11-23 09:57:00,
2013-11-23 04:02:00,25.6,17.7,30.03,WNW,293,3.6,4.3,72,0.00,,,0.00,WUHU216HW,2013-11-23 10:02:00,
2013-11-23 04:07:00,25.4,17.6,30.03,WNW,293,4.0,4.3,72,0.00,,,0.00,WUHU216HW,2013-11-23 10:07:00,
2013-11-23 04:12:00,25.2,17.4,30.03,WNW,293,2.5,4.0,72,0.00,,,0.00,WUHU216HW,2013-11-23 10:12:00,
2013-11-23 04:17:00,25.2,17.7,30.03,WNW,293,2.0,4.0,73,0.00,,,0.00,WUHU216HW,2013-11-23 10:17:00,
2013-11-23 04:22:00,25.2,17.7,30.03,WNW,293,2.0,2.9,73,0.00,,,0.00,WUHU216HW,2013-11-23 10:22:00,
2013-11-23 04:27:00,25.0,17.8,30.03,WNW,293,1.8,3.6,74,0.00,,,0.00,WUHU216HW,2013-11-23 10:27:00,
2013-11-23 04:32:00,25.0,17.8,30.04,WNW,293,1.8,3.6,74,0.00,,,0.00,WUHU216HW,2013-11-23 10:32:00,
2013-11-23 04:37:00,24.8,17.6,30.04,WNW,293,1.8,3.6,74,0.00,,,0.00,WUHU216HW,2013-11-23 10:37:00,
2013-11-23 04:42:00,24.8,17.4,30.04,WNW,293,2.7,4.5,73,0.00,,,0.00,WUHU216HW,2013-11-23 10:42:00,
2013-11-23 04:47:00,24.7,17.2,30.05,WNW,293,1.8,4.7,73,0.00,,,0.00,WUHU216HW,2013-11-23 10:47:00,
2013-11-23 04:52:00,24.7,17.6,30.05,WNW,293,3.1,4.9,74,0.00,,,0.00,WUHU216HW,2013-11-23 10:52:00,
2013-11-23 04:57:00,24.7,17.2,30.05,WNW,293,4.0,4.9,73,0.00,,,0.00,WUHU216HW,2013-11-23 10:57:00,
2013-11-23 05:02:00,24.7,17.2,30.04,WNW,293,4.0,6.5,73,0.00,,,0.00,WUHU216HW,2013-11-23 11:02:00,
2013-11-23 05:07:00,24.7,17.2,30.04,WNW,293,2.2,6.5,73,0.00,,,0.00,WUHU216HW,2013-11-23 11:07:00,
2013-11-23 05:12:00,24.7,16.8,30.04,WNW,293,4.0,4.5,72,0.00,,,0.00,WUHU216HW,2013-11-23 11:12:00,
2013-11-23 05:17:00,24.5,17.0,30.05,WNW,293,1.8,4.5,73,0.00,,,0.00,WUHU216HW,2013-11-23 11:17:00,
2013-11-23 05:22:00,24.5,17.0,30.05,WNW,293,2.5,4.5,73,0.00,,,0.00,WUHU216HW,2013-11-23 11:22:00,
2013-11-23 05:27:00,24.3,16.8,30.05,WNW,293,2.7,4.5,73,0.00,,,0.00,WUHU216HW,2013-11-23 11:27:00,
2013-11-23 05:32:00,24.1,16.7,30.05,WNW,293,1.8,4.3,73,0.00,,,0.00,WUHU216HW,2013-11-23 11:32:00,
2013-11-23 05:37:00,24.1,17.0,30.05,WNW,293,2.2,4.7,74,0.00,,,0.00,WUHU216HW,2013-11-23 11:37:00,
2013-11-23 05:42:00,24.1,17.0,30.05,WNW,293,2.9,4.7,74,0.00,,,0.00,WUHU216HW,2013-11-23 11:42:00,
2013-11-23 05:47:00,24.1,16.7,30.05,WNW,293,2.9,4.7,73,0.00,,,0.00,WUHU216HW,2013-11-23 11:47:00,
2013-11-23 05:52:00,24.1,16.7,30.05,WNW,293,2.0,5.8,73,0.00,,,0.00,WUHU216HW,2013-11-23 11:52:00,
2013-11-23 05:57:00,24.1,16.7,30.05,WNW,293,3.6,5.8,73,0.00,,,0.00,WUHU216HW,2013-11-23 11:57:00,
2013-11-23 06:02:00,24.1,17.0,30.05,WNW,293,2.7,4.3,74,0.00,,,0.00,WUHU216HW,2013-11-23 12:02:00,
2013-11-23 06:07:00,24.1,17.0,30.05,WNW,293,1.6,4.0,74,0.00,,,0.00,WUHU216HW,2013-11-23 12:07:00,
2013-11-23 06:12:00,24.1,17.0,30.06,WNW,293,0.7,3.4,74,0.00,,,0.00,WUHU216HW,2013-11-23 12:12:00,
2013-11-23 06:17:00,24.1,16.7,30.06,WNW,293,2.5,4.7,73,0.00,,,0.00,WUHU216HW,2013-11-23 12:17:00,
2013-11-23 06:22:00,24.1,16.7,30.06,WNW,293,3.4,4.7,73,0.00,,,0.00,WUHU216HW,2013-11-23 12:22:00,
2013-11-23 06:27:00,23.9,16.8,30.06,WNW,293,1.1,4.7,74,0.00,,,0.00,WUHU216HW,2013-11-23 12:27:00,
2013-11-23 06:32:00,23.8,16.7,30.06,WNW,293,2.0,4.7,74,0.00,,,0.00,WUHU216HW,2013-11-23 12:32:00,
2013-11-23 06:37:00,23.8,16.7,30.07,WNW,293,1.8,4.5,74,0.00,,,0.00,WUHU216HW,2013-11-23 12:37:00,
2013-11-23 06:42:00,23.8,16.7,30.06,WNW,293,0.4,3.4,74,0.00,,,0.00,WUHU216HW,2013-11-23 12:42:00,
2013-11-23 06:47:00,23.8,16.7,30.07,WNW,293,1.3,2.2,74,0.00,,,0.00,WUHU216HW,2013-11-23 12:47:00,
2013-11-23 06:52:00,23.8,16.7,30.07,WNW,293,4.0,4.0,74,0.00,,,0.00,WUHU216HW,2013-11-23 12:52:00,
2013-11-23 06:57:00,23.8,17.0,30.07,WNW,293,2.2,4.0,75,0.00,,,0.00,WUHU216HW,2013-11-23 12:57:00,
2013-11-23 07:02:00,23.8,17.0,30.07,WNW,293,1.1,4.0,75,0.00,,,0.00,WUHU216HW,2013-11-23 13:02:00,
2013-11-23 07:07:00,23.8,17.0,30.07,WNW,293,1.8,3.6,75,0.00,,,0.00,WUHU216HW,2013-11-23 13:07:00,
2013-11-23 07:12:00,23.8,17.0,30.08,WNW,293,4.7,4.7,75,0.00,,,0.00,WUHU216HW,2013-11-23 13:12:00,
2013-11-23 07:17:00,23.8,17.0,30.07,WNW,293,1.1,4.7,75,0.00,,,0.00,WUHU216HW,2013-11-23 13:17:00,
2013-11-23 07:21:00,23.8,17.0,30.08,WNW,293,1.3,4.7,75,0.00,,,0.00,WUHU216HW,2013-11-23 13:21:00,
2013-11-23 07:26:00,23.9,17.5,30.08,WNW,293,1.8,4.0,76,0.00,,,0.00,WUHU216HW,2013-11-23 13:26:00,
2013-11-23 07:31:00,24.1,17.7,30.09,WNW,293,1.8,4.0,76,0.00,,,0.00,WUHU216HW,2013-11-23 13:31:00,
2013-11-23 07:36:00,24.1,17.3,30.09,WNW,293,1.8,4.9,75,0.00,,,0.00,WUHU216HW,2013-11-23 13:36:00,
2013-11-23 07:41:00,24.3,17.5,30.09,WNW,293,3.6,5.1,75,0.00,,,0.00,WUHU216HW,2013-11-23 13:41:00,
2013-11-23 07:46:00,24.3,17.8,30.09,WNW,293,1.3,5.1,76,0.00,,,0.00,WUHU216HW,2013-11-23 13:46:00,
2013-11-23 07:51:00,24.5,17.6,30.10,WNW,293,2.5,4.0,75,0.00,,,0.00,WUHU216HW,2013-11-23 13:51:00,
2013-11-23 07:56:00,24.5,17.6,30.10,WNW,293,0.9,4.3,75,0.00,,,0.00,WUHU216HW,2013-11-23 13:56:00,
2013-11-23 08:01:00,24.7,17.8,30.10,WNW,293,1.8,4.3,75,0.00,,,0.00,WUHU216HW,2013-11-23 14:01:00,
2013-11-23 08:06:00,24.8,18.0,30.10,WNW,293,3.1,4.7,75,0.00,,,0.00,WUHU216HW,2013-11-23 14:06:00,
2013-11-23 08:11:00,24.8,18.0,30.10,WNW,293,3.1,4.7,75,0.00,,,0.00,WUHU216HW,2013-11-23 14:11:00,
2013-11-23 08:16:00,24.8,18.0,30.10,WNW,293,3.6,3.8,75,0.00,,,0.00,WUHU216HW,2013-11-23 14:16:00,
2013-11-23 08:21:00,24.8,18.0,30.10,WNW,293,1.8,3.8,75,0.00,,,0.00,WUHU216HW,2013-11-23 14:21:00,
2013-11-23 08:26:00,25.0,18.2,30.11,WNW,293,1.1,8.3,75,0.00,,,0.00,WUHU216HW,2013-11-23 14:26:00,
2013-11-23 08:31:00,25.4,18.6,30.10,WNW,293,4.0,8.3,75,0.00,,,0.00,WUHU216HW,2013-11-23 14:31:00,
2013-11-23 08:36:00,25.4,18.6,30.11,WNW,293,2.9,6.5,75,0.00,,,0.00,WUHU216HW,2013-11-23 14:36:00,
2013-11-23 08:41:00,25.6,18.7,30.11,WNW,293,2.2,5.6,75,0.00,,,0.00,WUHU216HW,2013-11-23 14:41:00,
2013-11-23 08:46:00,25.7,18.8,30.12,WNW,293,3.4,5.1,75,0.00,,,0.00,WUHU216HW,2013-11-23 14:46:00,
2013-11-23 08:51:00,25.9,18.7,30.12,WNW,293,1.6,6.5,74,0.00,,,0.00,WUHU216HW,2013-11-23 14:51:00,
2013-11-23 08:56:00,25.7,18.3,30.12,WNW,293,5.6,8.5,73,0.00,,,0.00,WUHU216HW,2013-11-23 14:56:00,
2013-11-23 09:01:00,25.6,18.1,30.13,WNW,293,5.1,8.5,73,0.00,,,0.00,WUHU216HW,2013-11-23 15:01:00,
2013-11-23 09:06:00,25.7,18.3,30.12,WNW,293,2.7,6.9,73,0.00,,,0.00,WUHU216HW,2013-11-23 15:06:00,
2013-11-23 09:11:00,25.9,18.4,30.13,WNW,293,4.7,7.4,73,0.00,,,0.00,WUHU216HW,2013-11-23 15:11:00,
2013-11-23 09:16:00,25.9,18.4,30.13,WNW,293,4.9,7.4,73,0.00,,,0.00,WUHU216HW,2013-11-23 15:16:00,
2013-11-23 09:21:00,25.9,18.4,30.13,WNW,293,0.7,7.6,73,0.00,,,0.00,WUHU216HW,2013-11-23 15:21:00,
2013-11-23 09:26:00,26.3,18.7,30.13,WNW,293,4.7,7.6,73,0.00,,,0.00,WUHU216HW,2013-11-23 15:26:00,
2013-11-23 09:31:00,26.3,18.5,30.13,WNW,293,3.8,5.6,72,0.00,,,0.00,WUHU216HW,2013-11-23 15:31:00,
2013-11-23 09:36:00,26.3,18.5,30.13,WNW,293,2.5,5.8,72,0.00,,,0.00,WUHU216HW,2013-11-23 15:36:00,
2013-11-23 09:41:00,26.3,18.5,30.13,WNW,293,3.6,6.9,72,0.00,,,0.00,WUHU216HW,2013-11-23 15:41:00,
2013-11-23 09:46:00,25.9,18.1,30.13,WNW,293,3.4,6.9,72,0.00,,,0.00,WUHU216HW,2013-11-23 15:46:00,
2013-11-23 09:51:00,26.1,18.3,30.14,WNW,293,8.7,8.7,72,0.00,,,0.00,WUHU216HW,2013-11-23 15:51:00,
2013-11-23 09:56:00,26.1,18.3,30.14,WNW,293,2.9,9.8,72,0.00,,,0.00,WUHU216HW,2013-11-23 15:56:00,
2013-11-23 10:01:00,25.9,18.1,30.14,WNW,293,2.7,9.8,72,0.00,,,0.00,WUHU216HW,2013-11-23 16:01:00,
2013-11-23 10:06:00,25.9,18.1,30.14,WNW,293,2.7,9.2,72,0.00,,,0.00,WUHU216HW,2013-11-23 16:06:00,
2013-11-23 10:11:00,26.1,18.3,30.14,WNW,293,5.4,6.7,72,0.00,,,0.00,WUHU216HW,2013-11-23 16:11:00,
2013-11-23 10:16:00,26.3,18.5,30.14,WNW,293,1.6,6.3,72,0.00,,,0.00,WUHU216HW,2013-11-23 16:16:00,
2013-11-23 10:21:00,26.3,18.5,30.15,WNW,293,3.1,5.4,72,0.00,,,0.00,WUHU216HW,2013-11-23 16:21:00,
2013-11-23 10:26:00,26.1,17.9,30.15,WNW,293,2.0,6.5,71,0.00,,,0.00,WUHU216HW,2013-11-23 16:26:00,
2013-11-23 10:31:00,25.7,17.6,30.15,WNW,293,3.4,6.5,71,0.00,,,0.00,WUHU216HW,2013-11-23 16:31:00,
2013-11-23 10:36:00,25.7,17.6,30.15,WNW,293,2.5,6.3,71,0.00,,,0.00,WUHU216HW,2013-11-23 16:36:00,
2013-11-23 10:41:00,25.7,17.6,30.15,WNW,293,5.1,5.1,71,0.00,,,0.00,WUHU216HW,2013-11-23 16:41:00,
2013-11-23 10:46:00,25.9,17.5,30.15,WNW,293,2.7,8.1,70,0.00,,,0.00,WUHU216HW,2013-11-23 16:46:00,
2013-11-23 10:51:00,25.7,17.3,30.15,WNW,293,6.7,8.1,70,0.00,,,0.00,WUHU216HW,2013-11-23 16:51:00,
2013-11-23 10:56:00,25.9,17.5,30.15,WNW,293,3.4,8.9,70,0.00,,,0.00,WUHU216HW,2013-11-23 16:56:00,
2013-11-23 11:01:00,26.1,16.9,30.14,WNW,293,5.4,8.9,68,0.00,,,0.00,WUHU216HW,2013-11-23 17:01:00,
2013-11-23 11:06:00,26.3,16.7,30.14,WNW,293,5.6,6.9,67,0.00,,,0.00,WUHU216HW,2013-11-23 17:06:00,
2013-11-23 11:11:00,26.3,17.5,30.15,WNW,293,2.5,6.9,69,0.00,,,0.00,WUHU216HW,2013-11-23 17:11:00,
2013-11-23 11:16:00,26.6,16.4,30.15,WNW,293,3.6,8.9,65,0.00,,,0.00,WUHU216HW,2013-11-23 17:16:00,
2013-11-23 11:21:00,26.6,16.7,30.15,WNW,293,2.5,8.9,66,0.00,,,0.00,WUHU216HW,2013-11-23 17:21:00,
2013-11-23 11:26:00,26.6,17.1,30.15,WNW,293,4.5,10.3,67,0.00,,,0.00,WUHU216HW,2013-11-23 17:26:00,
2013-11-23 11:31:00,26.6,16.4,30.15,WNW,293,3.8,10.3,65,0.00,,,0.00,WUHU216HW,2013-11-23 17:31:00,
2013-11-23 11:36:00,26.3,16.0,30.15,WNW,293,4.5,7.4,65,0.00,,,0.00,WUHU216HW,2013-11-23 17:36:00,
2013-11-23 11:41:00,26.3,16.0,30.15,WNW,293,4.9,5.6,65,0.00,,,0.00,WUHU216HW,2013-11-23 17:41:00,
2013-11-23 11:46:00,26.3,16.0,30.15,WNW,293,2.2,8.5,65,0.00,,,0.00,WUHU216HW,2013-11-23 17:46:00,
2013-11-23 11:51:00,26.3,15.3,30.15,WNW,293,2.2,8.5,63,0.00,,,0.00,WUHU216HW,2013-11-23 17:51:00,
2013-11-23 11:56:00,26.3,15.7,30.15,WNW,293,6.9,6.9,64,0.00,,,0.00,WUHU216HW,2013-11-23 17:56:00,
2013-11-23 12:01:00,26.1,15.5,30.15,WNW,293,5.4,9.8,64,0.00,,,0.00,WUHU216HW,2013-11-23 18:01:00,
2013-11-23 12:06:00,25.9,14.7,30.15,WNW,293,6.0,9.8,62,0.00,,,0.00,WUHU216HW,2013-11-23 18:06:00,
2013-11-23 12:11:00,25.9,15.3,30.15,WNW,293,0.9,8.5,64,0.00,,,0.00,WUHU216HW,2013-11-23 18:11:00,
2013-11-23 12:16:00,25.9,15.3,30.15,WNW,293,4.3,6.9,64,0.00,,,0.00,WUHU216HW,2013-11-23 18:16:00,
2013-11-23 12:21:00,25.9,15.0,30.15,WNW,293,1.1,4.3,63,0.00,,,0.00,WUHU216HW,2013-11-23 18:21:00,
2013-11-23 12:26:00,25.7,14.9,30.15,WNW,293,2.7,6.9,63,0.00,,,0.00,WUHU216HW,2013-11-23 18:26:00,
2013-11-23 12:31:00,25.6,14.3,30.15,WNW,293,4.7,10.7,62,0.00,,,0.00,WUHU216HW,2013-11-23 18:31:00,
2013-11-23 12:36:00,25.4,15.2,30.15,WNW,293,3.8,10.7,65,0.00,,,0.00,WUHU216HW,2013-11-23 18:36:00,
2013-11-23 12:41:00,25.4,15.6,30.15,WNW,293,4.3,7.6,66,0.00,,,0.00,WUHU216HW,2013-11-23 18:41:00,
2013-11-23 12:46:00,25.2,14.7,30.16,WNW,293,3.8,8.1,64,0.00,,,0.00,WUHU216HW,2013-11-23 18:46:00,
2013-11-23 12:51:00,24.8,14.3,30.16,WNW,293,5.1,8.5,64,0.00,,,0.00,WUHU216HW,2013-11-23 18:51:00,
2013-11-23 12:56:00,24.8,14.7,30.16,WNW,293,2.2,8.5,65,0.00,,,0.00,WUHU216HW,2013-11-23 18:56:00,
2013-11-23 13:01:00,24.8,14.3,30.16,WNW,293,4.5,8.5,64,0.00,,,0.00,WUHU216HW,2013-11-23 19:01:00,
2013-11-23 13:06:00,24.8,15.0,30.16,WNW,293,4.0,10.1,66,0.00,,,0.00,WUHU216HW,2013-11-23 19:06:00,
2013-11-23 13:11:00,24.8,14.3,30.16,WNW,293,3.8,10.1,64,0.00,,,0.00,WUHU216HW,2013-11-23 19:11:00,
2013-11-23 13:16:00,25.2,14.7,30.16,WNW,293,3.1,8.9,64,0.00,,,0.00,WUHU216HW,2013-11-23 19:16:00,
2013-11-23 13:21:00,25.6,14.3,30.16,WNW,293,6.9,6.9,62,0.00,,,0.00,WUHU216HW,2013-11-23 19:21:00,
2013-11-23 13:26:00,25.6,14.0,30.17,WNW,293,1.1,6.9,61,0.00,,,0.00,WUHU216HW,2013-11-23 19:26:00,
2013-11-23 13:31:00,25.4,13.8,30.16,WNW,293,1.1,6.9,61,0.00,,,0.00,WUHU216HW,2013-11-23 19:31:00,
2013-11-23 13:36:00,25.4,13.8,30.16,WNW,293,1.1,4.7,61,0.00,,,0.00,WUHU216HW,2013-11-23 19:36:00,
2013-11-23 13:41:00,25.4,14.1,30.16,WNW,293,1.1,4.3,62,0.00,,,0.00,WUHU216HW,2013-11-23 19:41:00,
2013-11-23 13:46:00,25.4,13.8,30.17,WNW,293,4.0,5.4,61,0.00,,,0.00,WUHU216HW,2013-11-23 19:46:00,
2013-11-23 13:51:00,25.6,13.6,30.17,WNW,293,2.7,6.7,60,0.00,,,0.00,WUHU216HW,2013-11-23 19:51:00,
2013-11-23 13:56:00,25.6,13.6,30.17,WNW,293,5.8,8.1,60,0.00,,,0.00,WUHU216HW,2013-11-23 19:56:00,
2013-11-23 14:01:00,25.9,13.2,30.17,WNW,293,4.0,8.1,58,0.00,,,0.00,WUHU216HW,2013-11-23 20:01:00,
2013-11-23 14:06:00,25.9,12.7,30.17,WNW,293,9.4,9.4,57,0.00,,,0.00,WUHU216HW,2013-11-23 20:06:00,
2013-11-23 14:11:00,25.7,13.0,30.17,WNW,293,6.0,9.4,58,0.00,,,0.00,WUHU216HW,2013-11-23 20:11:00,
2013-11-23 14:16:00,25.9,13.5,30.17,WNW,293,3.4,9.4,59,0.00,,,0.00,WUHU216HW,2013-11-23 20:16:00,
2013-11-23 14:21:00,25.6,12.3,30.17,WNW,293,1.6,6.0,57,0.00,,,0.00,WUHU216HW,2013-11-23 20:21:00,
2013-11-23 14:26:00,25.4,12.3,30.17,WNW,293,2.2,5.1,57,0.00,,,0.00,WUHU216HW,2013-11-23 20:26:00,
2013-11-23 14:31:00,25.0,12.3,30.18,WNW,293,4.5,4.7,58,0.00,,,0.00,WUHU216HW,2013-11-23 20:31:00,
2013-11-23 14:36:00,25.2,12.1,30.17,WNW,293,1.8,7.2,57,0.00,,,0.00,WUHU216HW,2013-11-23 20:36:00,
2013-11-23 14:41:00,25.4,11.8,30.18,WNW,293,1.1,7.2,56,0.00,,,0.00,WUHU216HW,2013-11-23 20:41:00,
2013-11-23 14:46:00,25.4,11.8,30.18,WNW,293,2.7,6.0,56,0.00,,,0.00,WUHU216HW,2013-11-23 20:46:00,
2013-11-23 14:51:00,25.4,11.8,30.18,WNW,293,5.1,6.0,56,0.00,,,0.00,WUHU216HW,2013-11-23 20:51:00,
2013-11-23 14:56:00,25.6,12.0,30.18,WNW,293,4.3,5.8,56,0.00,,,0.00,WUHU216HW,2013-11-23 20:56:00,
2013-11-23 15:01:00,25.6,12.0,30.18,WNW,293,1.1,5.8,56,0.00,,,0.00,WUHU216HW,2013-11-23 21:01:00,
2013-11-23 15:06:00,25.6,11.2,30.18,WNW,293,1.3,5.1,54,0.00,,,0.00,WUHU216HW,2013-11-23 21:06:00,
2013-11-23 15:11:00,25.6,11.2,30.18,WNW,293,2.0,4.7,54,0.00,,,0.00,WUHU216HW,2013-11-23 21:11:00,
2013-11-23 15:16:00,25.6,11.2,30.19,WNW,293,2.0,4.7,54,0.00,,,0.00,WUHU216HW,2013-11-23 21:16:00,
2013-11-23 15:21:00,25.4,11.0,30.19,WNW,293,2.5,5.4,54,0.00,,,0.00,WUHU216HW,2013-11-23 21:21:00,
2013-11-23 15:26:00,25.2,11.6,30.19,WNW,293,2.5,5.4,56,0.00,,,0.00,WUHU216HW,2013-11-23 21:26:00,
2013-11-23 15:31:00,25.2,11.3,30.19,WNW,293,1.1,5.8,55,0.00,,,0.00,WUHU216HW,2013-11-23 21:31:00,
2013-11-23 15:36:00,25.2,11.6,30.19,WNW,293,1.6,5.8,56,0.00,,,0.00,WUHU216HW,2013-11-23 21:36:00,
2013-11-23 15:41:00,25.2,11.3,30.19,WNW,293,2.0,4.7,55,0.00,,,0.00,WUHU216HW,2013-11-23 21:41:00,
2013-11-23 15:46:00,25.0,11.1,30.20,WNW,293,1.1,4.7,55,0.00,,,0.00,WUHU216HW,2013-11-23 21:46:00,
2013-11-23 15:51:00,25.0,10.6,30.19,WNW,293,2.7,4.0,54,0.00,,,0.00,WUHU216HW,2013-11-23 21:51:00,
2013-11-23 15:56:00,24.8,10.4,30.20,WNW,293,2.0,4.0,54,0.00,,,0.00,WUHU216HW,2013-11-23 21:56:00,
2013-11-23 16:02:00,24.5,10.2,30.20,WNW,293,0.4,3.4,54,0.00,,,0.00,WUHU216HW,2013-11-23 22:02:00,
2013-11-23 16:07:00,24.3,10.4,30.20,WNW,293,0.0,2.5,55,0.00,,,0.00,WUHU216HW,2013-11-23 22:07:00,
2013-11-23 16:12:00,24.1,9.8,30.20,WNW,293,0.4,2.5,54,0.00,,,0.00,WUHU216HW,2013-11-23 22:12:00,
2013-11-23 16:17:00,24.3,10.8,30.21,WNW,293,1.8,3.4,56,0.00,,,0.00,WUHU216HW,2013-11-23 22:17:00,
2013-11-23 16:22:00,24.1,9.8,30.21,WNW,293,1.6,3.8,54,0.00,,,0.00,WUHU216HW,2013-11-23 22:22:00,
2013-11-23 16:27:00,23.9,9.3,30.20,WNW,293,1.8,3.8,53,0.00,,,0.00,WUHU216HW,2013-11-23 22:27:00,
2013-11-23 16:32:00,23.8,9.5,30.20,WNW,293,0.9,3.8,54,0.00,,,0.00,WUHU216HW,2013-11-23 22:32:00,
2013-11-23 16:37:00,23.8,9.9,30.20,WNW,293,0.9,2.5,55,0.00,,,0.00,WUHU216HW,2013-11-23 22:37:00,
2013-11-23 16:42:00,23.4,9.6,30.21,WNW,293,4.3,4.3,55,0.00,,,0.00,WUHU216HW,2013-11-23 22:42:00,
2013-11-23 16:47:00,23.4,9.6,30.20,WNW,293,1.8,5.8,55,0.00,,,0.00,WUHU216HW,2013-11-23 22:47:00,
2013-11-23 16:52:00,23.4,9.9,30.21,WNW,293,3.6,5.8,56,0.00,,,0.00,WUHU216HW,2013-11-23 22:52:00,
2013-11-23 16:57:00,23.4,9.9,30.21,WNW,293,0.9,3.6,56,0.00,,,0.00,WUHU216HW,2013-11-23 22:57:00,
2013-11-23 17:02:00,23.2,9.7,30.21,WNW,293,3.4,3.6,56,0.00,,,0.00,WUHU216HW,2013-11-23 23:02:00,
2013-11-23 17:07:00,23.2,10.2,30.21,WNW,293,2.7,3.8,57,0.00,,,0.00,WUHU216HW,2013-11-23 23:07:00,
2013-11-23 17:09:00,23.2,10.2,30.22,WNW,293,0.7,3.8,57,0.00,,,0.00,WUHU216HW,2013-11-23 23:09:00,
2013-11-23 17:14:00,23.2,10.2,30.21,WNW,293,1.3,3.8,57,0.00,,,0.00,WUHU216HW,2013-11-23 23:14:00,
2013-11-23 17:19:00,23.0,10.0,30.22,WNW,293,1.8,2.7,57,0.00,,,0.00,WUHU216HW,2013-11-23 23:19:00,
2013-11-23 17:24:00,23.0,10.0,30.22,WNW,293,1.1,2.2,57,0.00,,,0.00,WUHU216HW,2013-11-23 23:24:00,
2013-11-23 17:29:00,23.0,10.0,30.22,WNW,293,0.9,1.8,57,0.00,,,0.00,WUHU216HW,2013-11-23 23:29:00,
2013-11-23 17:34:00,22.9,9.5,30.22,WNW,293,0.0,4.0,56,0.00,,,0.00,WUHU216HW,2013-11-23 23:34:00,
2013-11-23 17:39:00,22.9,9.5,30.22,WNW,293,1.1,4.0,56,0.00,,,0.00,WUHU216HW,2013-11-23 23:39:00,
2013-11-23 17:44:00,22.7,9.3,30.22,WNW,293,1.1,2.5,56,0.00,,,0.00,WUHU216HW,2013-11-23 23:44:00,
2013-11-23 17:49:00,22.7,9.3,30.23,WNW,293,0.2,2.5,56,0.00,,,0.00,WUHU216HW,2013-11-23 23:49:00,
2013-11-23 17:54:00,22.7,9.6,30.22,WNW,293,0.4,1.6,57,0.00,,,0.00,WUHU216HW,2013-11-23 23:54:00,
2013-11-23 17:59:00,22.7,9.6,30.23,WNW,293,0.0,1.3,57,0.00,,,0.00,WUHU216HW,2013-11-23 23:59:00,
2013-11-23 18:04:00,22.7,9.6,30.23,WNW,293,0.9,2.2,57,0.00,,,0.00,WUHU216HW,2013-11-24 00:04:00,
2013-11-23 18:09:00,22.7,9.6,30.23,WNW,293,1.1,3.1,57,0.00,,,0.00,WUHU216HW,2013-11-24 00:09:00,
2013-11-23 18:14:00,22.5,9.5,30.23,WNW,293,0.2,3.1,57,0.00,,,0.00,WUHU216HW,2013-11-24 00:14:00,
2013-11-23 18:19:00,22.5,9.5,30.23,WNW,293,0.9,2.7,57,0.00,,,0.00,WUHU216HW,2013-11-24 00:19:00,
2013-11-23 18:24:00,22.3,9.7,30.23,WNW,293,0.4,2.7,58,0.00,,,0.00,WUHU216HW,2013-11-24 00:24:00,
2013-11-23 18:29:00,22.3,9.7,30.24,WNW,293,1.8,2.7,58,0.00,,,0.00,WUHU216HW,2013-11-24 00:29:00,
2013-11-23 18:34:00,22.1,9.1,30.23,WNW,293,0.9,2.9,57,0.00,,,0.00,WUHU216HW,2013-11-24 00:34:00,
2013-11-23 18:39:00,22.1,9.5,30.23,WNW,293,1.1,2.9,58,0.00,,,0.00,WUHU216HW,2013-11-24 00:39:00,
2013-11-23 18:44:00,22.0,9.8,30.23,WNW,293,0.9,1.6,59,0.00,,,0.00,WUHU216HW,2013-11-24 00:44:00,
2013-11-23 18:49:00,22.0,9.8,30.23,WNW,293,0.2,1.6,59,0.00,,,0.00,WUHU216HW,2013-11-24 00:49:00,
2013-11-23 18:54:00,22.0,9.8,30.23,WNW,293,0.9,1.3,59,0.00,,,0.00,WUHU216HW,2013-11-24 00:54:00,
2013-11-23 18:59:00,21.8,9.6,30.23,WNW,293,0.9,1.1,59,0.00,,,0.00,WUHU216HW,2013-11-24 00:59:00,
2013-11-23 19:04:00,21.8,10.0,30.23,WNW,293,1.1,1.8,60,0.00,,,0.00,WUHU216HW,2013-11-24 01:04:00,
2013-11-23 19:09:00,21.4,8.9,30.24,WNW,293,0.4,2.5,58,0.00,,,0.00,WUHU216HW,2013-11-24 01:09:00,
2013-11-23 19:14:00,21.2,9.1,30.23,WNW,293,0.4,2.5,59,0.00,,,0.00,WUHU216HW,2013-11-24 01:14:00,
2013-11-23 19:19:00,21.2,9.1,30.23,WNW,293,1.6,1.8,59,0.00,,,0.00,WUHU216HW,2013-11-24 01:19:00,
2013-11-23 19:24:00,21.1,8.6,30.23,WNW,293,1.3,1.8,58,0.00,,,0.00,WUHU216HW,2013-11-24 01:24:00,
2013-11-23 19:29:00,20.9,8.4,30.23,WNW,293,1.1,1.8,58,0.00,,,0.00,WUHU216HW,2013-11-24 01:29:00,
2013-11-23 19:34:00,20.7,8.6,30.24,WNW,293,1.6,2.5,59,0.00,,,0.00,WUHU216HW,2013-11-24 01:34:00,
2013-11-23 19:39:00,20.7,8.6,30.24,WNW,293,0.0,2.5,59,0.00,,,0.00,WUHU216HW,2013-11-24 01:39:00,
2013-11-23 19:44:00,20.7,8.6,30.24,WNW,293,0.4,1.8,59,0.00,,,0.00,WUHU216HW,2013-11-24 01:44:00,
2013-11-23 19:49:00,20.5,8.4,30.24,WNW,293,0.4,2.0,59,0.00,,,0.00,WUHU216HW,2013-11-24 01:49:00,
2013-11-23 19:54:00,20.5,8.4,30.24,WNW,293,1.1,2.0,59,0.00,,,0.00,WUHU216HW,2013-11-24 01:54:00,
2013-11-23 19:59:00,20.5,8.8,30.24,WNW,293,1.6,1.6,60,0.00,,,0.00,WUHU216HW,2013-11-24 01:59:00,
2013-11-23 20:04:00,20.5,8.8,30.25,WNW,293,0.7,1.8,60,0.00,,,0.00,WUHU216HW,2013-11-24 02:04:00,
2013-11-23 20:09:00,20.5,8.8,30.25,WNW,293,0.7,1.8,60,0.00,,,0.00,WUHU216HW,2013-11-24 02:09:00,
2013-11-23 20:14:00,20.3,8.6,30.25,WNW,293,0.9,1.8,60,0.00,,,0.00,WUHU216HW,2013-11-24 02:14:00,
2013-11-23 20:19:00,20.2,8.5,30.25,WNW,293,0.9,1.8,60,0.00,,,0.00,WUHU216HW,2013-11-24 02:19:00,
2013-11-23 20:24:00,20.0,7.9,30.25,WNW,293,0.9,2.7,59,0.00,,,0.00,WUHU216HW,2013-11-24 02:24:00,
2013-11-23 20:29:00,20.0,8.3,30.25,WNW,293,1.1,2.9,60,0.00,,,0.00,WUHU216HW,2013-11-24 02:29:00,
2013-11-23 20:34:00,19.8,8.1,30.25,WNW,293,0.4,3.4,60,0.00,,,0.00,WUHU216HW,2013-11-24 02:34:00,
2013-11-23 20:39:00,19.8,8.1,30.25,WNW,293,1.3,3.4,60,0.00,,,0.00,WUHU216HW,2013-11-24 02:39:00,
2013-11-23 20:44:00,19.8,8.1,30.25,WNW,293,0.9,2.9,60,0.00,,,0.00,WUHU216HW,2013-11-24 02:44:00,
2013-11-23 20:49:00,19.8,8.1,30.25,WNW,293,1.1,2.0,60,0.00,,,0.00,WUHU216HW,2013-11-24 02:49:00,
2013-11-23 20:54:00,19.8,8.1,30.26,WNW,293,0.4,2.0,60,0.00,,,0.00,WUHU216HW,2013-11-24 02:54:00,
2013-11-23 20:59:00,19.6,7.9,30.26,WNW,293,1.1,1.1,60,0.00,,,0.00,WUHU216HW,2013-11-24 02:59:00,
2013-11-23 21:04:00,19.4,7.7,30.26,WNW,293,1.1,2.5,60,0.00,,,0.00,WUHU216HW,2013-11-24 03:04:00,
2013-11-23 21:09:00,19.4,7.7,30.26,WNW,293,0.2,3.4,60,0.00,,,0.00,WUHU216HW,2013-11-24 03:09:00,
2013-11-23 21:14:00,19.4,7.7,30.26,WNW,293,0.0,3.4,60,0.00,,,0.00,WUHU216HW,2013-11-24 03:14:00,
2013-11-23 21:19:00,19.4,8.1,30.26,WNW,293,0.4,1.1,61,0.00,,,0.00,WUHU216HW,2013-11-24 03:19:00,
2013-11-23 21:24:00,19.4,8.1,30.27,WNW,293,0.0,1.1,61,0.00,,,0.00,WUHU216HW,2013-11-24 03:24:00,
2013-11-23 21:29:00,19.4,8.1,30.27,WNW,293,0.0,2.2,61,0.00,,,0.00,WUHU216HW,2013-11-24 03:29:00,
2013-11-23 21:34:00,19.3,7.9,30.27,WNW,293,0.7,2.2,61,0.00,,,0.00,WUHU216HW,2013-11-24 03:34:00,
2013-11-23 21:39:00,19.1,7.7,30.27,WNW,293,0.2,1.6,61,0.00,,,0.00,WUHU216HW,2013-11-24 03:39:00,
2013-11-23 21:44:00,18.9,7.6,30.27,WNW,293,0.4,4.7,61,0.00,,,0.00,WUHU216HW,2013-11-24 03:44:00,
2013-11-23 21:49:00,18.7,7.5,30.27,WNW,293,1.6,4.7,61,0.00,,,0.00,WUHU216HW,2013-11-24 03:49:00,
2013-11-23 21:54:00,18.5,7.3,30.27,WNW,293,0.0,2.0,61,0.00,,,0.00,WUHU216HW,2013-11-24 03:54:00,
2013-11-23 21:59:00,18.5,7.3,30.27,WNW,293,0.7,2.0,61,0.00,,,0.00,WUHU216HW,2013-11-24 03:59:00,
2013-11-23 22:04:00,18.5,7.3,30.27,WNW,293,0.2,1.8,61,0.00,,,0.00,WUHU216HW,2013-11-24 04:04:00,
2013-11-23 22:09:00,18.4,7.1,30.26,WNW,293,0.7,1.1,61,0.00,,,0.00,WUHU216HW,2013-11-24 04:09:00,
2013-11-23 22:14:00,18.4,7.1,30.27,WNW,293,0.7,1.6,61,0.00,,,0.00,WUHU216HW,2013-11-24 04:14:00,
2013-11-23 22:19:00,18.2,6.9,30.26,WNW,293,1.1,2.0,61,0.00,,,0.00,WUHU216HW,2013-11-24 04:19:00,
2013-11-23 22:24:00,18.0,6.8,30.26,WNW,293,1.8,2.0,61,0.00,,,0.00,WUHU216HW,2013-11-24 04:24:00,
2013-11-23 22:29:00,18.0,6.8,30.26,WNW,293,0.4,1.8,61,0.00,,,0.00,WUHU216HW,2013-11-24 04:29:00,
2013-11-23 22:34:00,18.0,6.8,30.26,WNW,293,2.5,2.5,61,0.00,,,0.00,WUHU216HW,2013-11-24 04:34:00,
2013-11-23 22:39:00,17.8,6.7,30.26,WNW,293,0.0,2.5,61,0.00,,,0.00,WUHU216HW,2013-11-24 04:39:00,
2013-11-23 22:44:00,18.0,6.8,30.25,WNW,293,1.1,2.5,61,0.00,,,0.00,WUHU216HW,2013-11-24 04:44:00,
2013-11-23 22:49:00,17.6,6.5,30.25,WNW,293,0.4,3.4,61,0.00,,,0.00,WUHU216HW,2013-11-24 04:49:00,
2013-11-23 22:54:00,17.6,6.5,30.25,WNW,293,0.9,3.4,61,0.00,,,0.00,WUHU216HW,2013-11-24 04:54:00,
2013-11-23 22:59:00,17.6,6.9,30.24,WNW,293,0.2,3.4,62,0.00,,,0.00,WUHU216HW,2013-11-24 04:59:00,
2013-11-23 23:01:00,17.6,6.5,30.24,WNW,293,1.6,3.4,61,0.00,,,0.00,WUHU216HW,2013-11-24 05:01:00,
2013-11-23 23:02:00,17.5,6.3,30.24,WNW,293,0.7,2.9,61,0.00,,,0.00,WUHU216HW,2013-11-24 05:02:00,
2013-11-23 23:07:00,17.3,6.5,30.24,WNW,293,0.9,2.9,62,0.00,,,0.00,WUHU216HW,2013-11-24 05:07:00,
2013-11-23 23:12:00,17.1,6.3,30.25,WNW,293,0.0,2.9,62,0.00,,,0.00,WUHU216HW,2013-11-24 05:12:00,
2013-11-23 23:17:00,17.3,6.8,30.25,WNW,293,0.7,1.1,63,0.00,,,0.00,WUHU216HW,2013-11-24 05:17:00,
2013-11-23 23:22:00,17.3,6.8,30.25,WNW,293,0.4,1.1,63,0.00,,,0.00,WUHU216HW,2013-11-24 05:22:00,
2013-11-23 23:27:00,17.3,6.5,30.25,WNW,293,0.9,1.3,62,0.00,,,0.00,WUHU216HW,2013-11-24 05:27:00,
2013-11-23 23:32:00,17.3,6.5,30.25,WNW,293,0.0,2.0,62,0.00,,,0.00,WUHU216HW,2013-11-24 05:32:00,
2013-11-23 23:37:00,17.3,6.5,30.25,WNW,293,0.9,2.5,62,0.00,,,0.00,WUHU216HW,2013-11-24 05:37:00,
2013-11-23 23:42:00,17.1,6.3,30.25,WNW,293,0.2,2.5,62,0.00,,,0.00,WUHU216HW,2013-11-24 05:42:00,
2013-11-23 23:47:00,17.3,6.8,30.25,WNW,293,0.0,1.1,63,0.00,,,0.00,WUHU216HW,2013-11-24 05:47:00,
2013-11-23 23:52:00,17.3,6.5,30.25,WNW,293,0.2,1.1,62,0.00,,,0.00,WUHU216HW,2013-11-24 05:52:00,
2013-11-23 23:57:00,17.1,6.3,30.25,WNW,293,0.2,1.1,62,0.00,,,0.00,WUHU216HW,2013-11-24 05:57:00,